Vorticity
nan nan nan nan nan nan nan nan nan nan nan nan nan nan nan nan nan nan nan nan nan nan nan nan nan nan nan nan nan nan nan nan nan nan nan nan nan nan nan nan nan nan nan nan nan
nan 7 8 8 8 8 7 7 7 5 5 10 11 6 7 8 11 18 21 15 9 8 7 6 9 6 5 5 5 6 6 5 6 11 14 5 6 7 8 4 1 8 19 13 nan
nan 6 7 7 6 8 9 8 7 7 6 5 11 10 7 9 15 17 16 26 21 8 7 6 7 6 4 7 5 3 6 2 -1 8 8 11 11 4 8 6 8 9 10 4 nan
nan 7 8 8 7 6 7 6 7 8 7 7 6 12 12 10 9 -3 6 18 16 8 7 8 8 3 4 8 2 5 7 -0 1 10 7 6 6 8 5 9 17 18 6 3 nan
nan 7 7 7 7 7 8 7 7 8 8 8 7 11 16 8 1 -3 8 16 11 8 6 8 8 7 7 2 9 9 1 10 8 2 4 5 8 10 5 3 15 19 6 4 nan
nan 8 9 8 8 8 8 8 9 10 9 6 6 12 12 5 4 16 9 13 8 8 7 3 8 10 4 9 4 7 13 2 8 6 4 9 6 5 6 6 13 9 4 6 nan
nan 8 7 8 7 7 8 9 10 9 8 8 7 11 9 10 3 3 8 10 10 7 5 8 5 9 6 9 14 6 8 12 10 1 8 13 7 7 9 7 7 4 7 8 nan
nan 9 8 7 7 7 8 8 7 7 9 10 10 8 10 15 7 -3 5 9 9 8 7 4 6 15 10 8 17 15 8 8 11 5 6 3 15 12 5 7 8 6 8 9 nan
nan 7 8 7 8 7 8 8 9 9 14 13 14 9 12 17 9 11 9 4 5 8 11 10 10 8 8 9 12 14 9 6 9 13 4 -2 5 14 11 8 6 6 8 9 nan
nan 9 9 8 8 7 10 16 20 23 23 17 11 7 10 13 18 15 9 10 5 7 8 8 11 5 10 9 6 7 5 11 9 11 12 -2 -3 6 14 15 6 5 9 9 nan
nan 9 9 10 9 10 15 17 16 26 15 -0 7 6 4 12 16 14 13 13 7 4 9 10 4 9 4 3 2 3 10 7 11 20 12 6 5 4 2 6 13 11 7 10 nan
nan 9 9 11 12 16 16 9 8 13 11 7 5 7 4 2 10 13 12 13 7 4 3 7 9 6 9 9 4 1 2 12 15 14 10 13 8 10 10 3 7 8 8 9 nan
nan 10 10 13 17 22 10 10 14 13 11 16 24 17 13 9 3 15 14 11 10 10 4 -3 8 12 8 6 8 7 7 2 9 9 2 11 15 16 10 10 7 6 5 12 nan
nan 9 9 17 16 10 12 13 10 7 9 21 19 16 22 9 19 5 14 16 8 13 6 8 11 8 5 7 5 9 8 6 6 4 11 6 9 22 18 10 7 8 6 10 nan
nan 8 11 16 16 6 9 11 10 6 6 11 7 17 25 10 9 10 5 15 16 8 10 10 14 9 10 9 6 9 16 11 8 3 7 3 5 9 20 24 12 9 9 5 nan
nan 8 15 17 11 9 10 12 11 10 6 4 11 17 14 12 -4 7 12 5 14 21 10 -2 13 19 11 12 13 8 8 13 13 11 12 14 4 5 15 21 17 10 9 9 nan
nan 9 17 16 8 8 13 13 10 3 3 9 6 6 19 23 13 6 2 1 5 10 17 8 5 14 13 7 9 11 6 10 10 9 12 17 11 5 0 6 24 23 12 9 nan
nan 19 18 10 12 13 10 10 8 5 4 3 8 14 12 17 22 12 9 11 2 2 10 9 8 12 14 10 10 11 -2 6 9 6 11 8 11 17 8 6 7 15 24 16 nan
nan 19 13 9 11 13 10 6 5 5 9 5 13 22 12 10 18 19 12 11 15 3 2 10 11 15 11 9 6 9 4 0 9 11 12 9 5 10 19 11 11 8 12 17 nan
nan 11 8 7 14 11 7 7 3 3 11 15 10 9 11 16 14 15 15 7 13 13 -1 8 18 12 2 1 12 13 9 1 8 14 11 10 9 11 13 9 9 8 6 8 nan
nan 8 7 10 12 9 8 4 1 7 13 10 6 7 6 9 14 15 8 18 21 9 4 -0 6 12 10 12 9 6 8 7 11 6 6 11 7 8 13 19 15 8 9 11 nan
nan 8 7 11 11 9 5 3 4 9 15 13 7 9 6 9 16 10 5 5 10 28 23 3 5 13 10 7 13 12 11 10 2 9 9 9 4 10 9 10 18 18 10 12 nan
nan 11 8 11 11 7 5 8 13 13 12 11 9 8 9 12 14 8 6 7 8 22 18 10 5 12 9 6 13 15 11 7 5 11 13 5 5 7 9 11 14 14 12 13 nan
nan 10 11 10 11 4 8 11 9 11 13 13 9 7 9 9 11 14 11 5 8 13 18 15 11 11 7 9 8 9 11 10 10 5 7 3 7 9 8 9 9 9 10 10 nan
nan 9 9 8 5 6 14 11 5 11 14 12 15 9 10 11 10 13 10 9 11 8 14 10 11 6 6 8 7 10 10 11 6 12 4 3 2 10 15 10 8 8 9 10 nan
nan 9 10 7 7 11 13 6 6 12 17 14 7 4 13 14 9 10 10 11 9 5 10 11 16 12 9 7 7 8 9 10 5 3 8 11 10 -0 9 13 11 10 9 8 nan
nan nan nan nan nan nan nan nan nan nan nan nan nan nan nan nan nan nan nan nan nan nan nan nan nan nan nan nan nan nan nan nan nan nan nan nan nan nan nan nan nan nan nan nan nan
CAPE
29 22 16 16 11 2 3 8 16 35 52 52 27 4 5 0 5 4 1 0 0 0 2 13 29 112 55 6 0 1 11 0 0 0 0 0 0 0 0 0 0 0 0 0 0
28 52 56 49 37 23 9 3 2 12 37 58 63 23 6 0 0 1 0 0 2 0 1 31 27 30 19 5 0 2 4 0 0 0 0 0 0 0 0 0 0 0 0 0 0
20 23 24 26 25 41 57 28 6 4 14 23 60 60 31 0 0 0 81 2 0 0 0 24 48 18 16 6 2 0 0 0 0 0 0 0 0 0 0 0 0 0 0 0 0
50 42 33 31 29 27 33 19 51 24 4 8 25 63 64 0 0 0 0 35 0 0 0 25 44 45 22 23 5 0 0 0 0 0 0 0 0 0 0 0 0 0 0 0 0
21 23 29 36 42 47 38 23 24 38 47 7 9 37 42 21 0 0 0 93 0 8 96 135 25 39 22 9 13 7 0 0 0 0 0 0 0 0 0 0 0 0 0 0 0
49 52 50 55 57 62 58 53 52 41 56 58 17 29 50 13 0 0 0 37 2 147 147 124 26 28 33 20 9 7 5 0 0 0 0 0 0 0 0 0 0 0 0 0 0
35 51 51 47 60 61 68 64 55 47 50 76 86 34 28 23 0 0 0 68 58 169 197 66 46 25 54 35 21 16 15 9 1 0 0 0 0 0 0 0 0 0 0 0 0
53 51 57 51 51 58 55 50 36 40 44 74 105 63 21 0 0 0 0 82 168 182 172 160 19 14 18 24 5 25 23 3 0 4 0 0 0 0 0 0 0 0 0 0 0
55 53 58 57 52 59 49 52 36 19 29 66 86 82 23 2 0 0 0 0 175 173 139 80 6 7 7 27 15 9 1 2 0 0 0 0 0 0 0 0 0 0 0 0 0
49 54 61 70 75 61 49 60 4 23 11 41 77 66 16 1 2 0 0 0 2 137 116 0 0 1 1 9 1 3 6 0 0 0 0 0 0 0 0 0 0 0 0 0 0
48 85 71 82 87 81 72 10 0 0 69 36 27 30 0 0 4 64 18 14 7 98 23 0 7 4 0 6 4 0 3 0 0 0 0 0 0 0 0 0 0 0 0 0 0
30 54 65 82 78 76 75 38 19 67 51 0 0 0 0 0 2 50 51 37 61 33 42 2 8 0 0 10 16 0 0 0 0 0 0 0 0 0 0 0 0 0 0 0 0
36 70 71 57 43 17 20 32 41 0 118 0 0 0 0 0 17 3 71 46 54 59 59 11 1 0 0 1 4 0 0 0 0 0 0 0 0 0 0 0 0 0 0 0 0
43 81 138 119 9 42 31 46 73 1 30 0 0 0 0 3 20 15 4 81 54 15 8 40 9 0 17 2 2 10 0 0 0 0 0 0 0 0 0 0 0 0 0 0 0
58 64 62 94 37 38 44 72 114 112 6 31 30 13 0 19 17 17 0 18 34 16 32 4 25 29 19 0 19 6 25 0 3 0 0 0 0 0 0 0 0 0 0 0 0
44 71 70 29 77 61 108 117 143 20 0 12 52 24 32 11 39 25 74 41 53 49 19 19 12 30 0 3 19 21 0 0 5 0 1 0 0 0 0 0 0 0 0 0 0
45 68 38 39 20 97 157 129 22 5 7 12 3 4 29 22 31 28 22 42 46 102 12 30 0 0 3 2 7 6 1 1 1 0 0 0 0 0 0 0 0 0 0 0 0
138 159 76 6 77 110 149 1 1 7 11 26 5 3 0 27 23 30 26 40 55 65 7 14 9 0 0 0 0 1 4 0 0 0 0 0 0 0 0 0 0 0 0 0 0
111 14 16 24 77 137 59 1 2 23 1 0 0 1 11 53 7 24 9 59 38 16 7 6 7 0 0 0 0 4 8 0 0 0 0 0 0 0 0 0 0 0 0 0 0
0 7 52 77 174 98 22 5 6 17 15 5 2 14 6 1 7 54 30 1 2 38 11 0 27 0 0 0 0 3 0 0 0 0 0 0 0 0 0 0 0 0 0 0 0
7 14 50 107 146 78 10 10 3 1 9 22 55 9 0 1 18 48 31 22 9 11 27 15 1 0 0 0 0 0 0 0 0 0 0 0 0 0 0 0 0 0 0 0 0
24 12 2 51 62 23 11 28 74 5 3 7 11 8 2 6 7 3 12 38 10 27 27 19 3 0 0 0 0 0 0 0 0 0 0 0 0 0 0 0 0 0 0 0 0
16 2 3 23 11 15 8 0 3 9 4 7 6 11 11 1 3 6 50 43 32 9 19 16 6 1 0 0 0 0 0 0 0 0 0 0 0 0 0 0 0 0 0 0 0
10 1 35 1 0 4 12 0 0 0 0 2 0 1 3 1 4 7 15 4 0 71 71 77 0 0 0 0 0 0 0 0 0 0 0 0 0 0 0 0 0 0 0 0 0
9 11 5 4 23 6 12 5 2 31 15 29 7 8 11 3 0 11 75 17 16 17 2 0 0 0 0 0 0 0 0 0 0 0 0 0 0 0 0 0 0 0 0 0 0
22 28 35 17 0 5 3 13 7 3 2 0 7 11 27 8 15 11 7 25 35 7 1 0 4 10 0 0 0 0 0 0 0 0 0 0 0 0 0 0 0 0 0 0 0
22 15 29 1 15 10 17 9 6 14 2 26 21 21 1 16 16 32 12 28 38 2 2 0 0 0 0 1 1 0 0 0 0 0 0 0 0 0 0 0 0 0 0 0 0